Location: Unspecified
(0.0000°N, 0.0000°E)
Time: 07:23:08
(UTC+00:00)

Tiros 1 despin weight - Pass Details

Date: 04 October 2023
Orbit: 583 x 627 km, 48.2° (Epoch: 05 December)

Event Time Altitude Azimuth Distance (km) Brightness Sun altitude
Rises 13:47:31 0° 196° (SSW) 2,910 ? 60.0°
Reaches altitude 10° 13:50:17 10° 180° (S) 2,003 ? 59.3°
Maximum altitude 13:53:49 21° 130° (SE) 1,394 ? 58.5°
Drops below altitude 10° 13:57:20 10° 80° (E) 1,995 ? 57.6°
Sets 14:00:05 0° 64° (ENE) 2,895 ? 56.9°
